Regional Weather Roundup
Issued by NWS

Home | Current Version | Previous Version | Graphics & Text | Print | Product List | Glossary Off
Versions: 1 2 3 4 5 6 7 8 9 10 11 12 13 14 15 16 17 18 19 20 21 22 23 24 25 26 27 28 29 30 31 32 33 34 35 36 37 38 39 40 41 42 43 44 45 46 47 48 49 50

000
ASUS43 KDTX 210510
RWRMI
MICHIGAN HOURLY REGIONAL WEATHER ROUNDUP
NATIONAL WEATHER SERVICE DETROIT/PONTIAC MI
100 AM EDT MON APR 21 2014

NOTE: "FAIR" INDICATES FEW OR NO CLOUDS BELOW 12,000 FEET WITH NO
SIGNIFICANT WEATHER AND/OR OBSTRUCTION TO VISIBILITY.

MIZ047>049-052>055-059>063-066>070-074>076-081>083-210600-
SOUTHEAST LOWER MICHIGAN

CITY           SKY/WX    TMP DP  RH WIND       PRES   REMARKS
ADRIAN         CLEAR     49  38  65 E3        30.10F
ALMA           CLOUDY    59  34  39 S5        30.06S
ANN ARBOR      CLEAR     44  34  67 CALM      30.10F
BAD AXE        MOCLDY    55  37  50 S3        30.07F
DETROIT CITY   CLEAR     53  31  42 CALM      30.10F
DETROIT        PTCLDY    49  35  58 S5        30.11F
FLINT          CLEAR     57  36  45 S8        30.08S
GROSSE ILE     PTCLDY    46  39  76 S3        30.09F
HILLSDALE      CLEAR     54  31  41 SE6       30.09F
HOWELL         CLEAR     53  35  51 S6        30.08F

CITY           SKY/WX    TMP DP  RH WIND       PRES   REMARKS
JACKSON        CLEAR     54  31  41 SE3       30.09S
LAMBERTVILLE   CLEAR     48  37  66 CALM      30.10F
LANSING        PTCLDY    57  32  38 S7        30.07F
LAPEER         NOT AVBL
MASON          PTCLDY    53  33  46 S6        30.08S
MONROE         PTCLDY    46  39  76 CALM      30.09S
MT. CLEMENS    CLOUDY    44  36  73 E2        30.09F
PONTIAC        CLEAR     54  35  48 CALM      30.09F
PORT HOPE        N/A     56  42  59 S3        30.05F
PORT HURON     PTCLDY    46  36  66 S5        30.11S
TRI CITIES     CLOUDY    61  35  37 S7        30.06S
YPSILANTI      CLEAR     51  34  52 CALM      30.10F
$$
MIZ043>046-050>051-056>058-064>065-071>073-077>080-210600-
SOUTHWEST LOWER MICHIGAN

CITY           SKY/WX    TMP DP  RH WIND       PRES   REMARKS
BATTLE CREEK   PTCLDY    55  33  43 S5        30.07F
BENTON HARBOR  CLEAR     60  33  36 S6        30.04F
BIG RAPIDS     CLOUDY    58  41  53 CALM      30.03F
COLDWATER      PTCLDY    48  37  64 CALM      30.08S
HOLLAND        CLEAR     59  35  40 S8        30.04F
GRAND RAPIDS   MOCLDY    57  33  40 S8        30.05F
KALAMAZOO      PTCLDY    54  33  45 S5        30.06F
MARSHALL       PTCLDY    51  33  49 CALM      30.07F
MUSKEGON       PTCLDY    61  36  39 S6        30.03S
$$
MIZ016>042-210600-
NORTHERN LOWER MICHIGAN

CITY           SKY/WX    TMP DP  RH WIND       PRES   REMARKS
ALPENA         CLOUDY    47  41  80 CALM      30.04F
BEAVER ISLAND  CLOUDY    39  38  96 CALM      30.02F FOG
BELLAIRE       CLOUDY    49  45  87 CALM      30.01F
CADILLAC       CLOUDY    52  50  92 CALM      30.03S
CHARLEVOIX     CLOUDY    46  37  70 CALM      30.05F
FRANKFORT      CLOUDY    47  40  74 CALM      30.00S
GAYLORD        CLOUDY    54  41  61 CALM      30.02F
GRAYLING       CLOUDY    54  44  69 CALM      30.04S
HARBOR SPRINGS CLOUDY    45  44  97 E5        30.02F FOG
HOUGHTON LAKE  CLOUDY    52  50  93 CALM      30.04F
MANISTEE       CLOUDY    54  45  71 E5        30.01F
OSCODA         LGT RAIN  51  44  78 CALM      30.04F
PELLSTON       LGT RAIN  43  41  93 CALM      30.04F
TRAVERSE CITY  MOCLDY    55  44  66 CALM      29.99F
$$
MIZ007>008-015-210600-
EASTERN UPPER MICHIGAN

CITY           SKY/WX    TMP DP  RH WIND       PRES   REMARKS
KINROSS        CLOUDY    36  36 100 SE6       30.02F VSB 1/2
MACKINAC ISLAN CLOUDY    37  37  99 S9        30.03F
NEWBERRY       PTCLDY    33  33  98 SW9       30.00S FOG
S. S. MARIE    FOG       36  35  96 CALM      30.03R VSB 1/4
$$
MIZ004>006-011>014-085-210600-
CENTRAL UPPER MICHIGAN

CITY           SKY/WX    TMP DP  RH WIND       PRES   REMARKS
MANISTIQUE     PTCLDY    34  33  96 MISG      30.00F FOG
ESCANABA       CLOUDY    37  36  93 CALM      30.01R
MENOMINEE      MOCLDY    48  46  93 N6        30.00S
SAWYER-GWINN   PTCLDY    37  36  96 CALM      29.99S FOG
$$
MIZ001>003-009>011-084-210600-
WESTERN UPPER MICHIGAN

CITY           SKY/WX    TMP DP  RH WIND       PRES   REMARKS
IRON MOUNTAIN  FOG       40  40 100 CALM      29.98S VSB 1/4
HOUGHTON       CLEAR     41  34  76 CALM      29.97F
COPPER HARBOR    N/A     37  33  85 CALM      29.97F
IRONWOOD       CLEAR     37  27  65 CALM      29.95F
$$

ABBREVIATIONS USED IN REMARKS
   TC - TEMPERATURE IN CELSIUS
  WCI - WIND CHILL INDEX
   HX - HEAT INDEX
  VSB - VISIBILITY




USA.gov is the U.S. government's official web portal to all federal, state and local government web resources and services.